Regional Weather Roundup
Issued by NWS Jackson, KY

Home | Current Version | Previous Version | Text Only | Print | Product List | Glossary Off
Versions: 1 2 3 4 5 6 7 8 9 10 11 12 13 14 15 16 17 18 19 20 21 22 23 24 25 26 27 28 29 30 31 32 33 34 35 36 37 38 39 40 41 42 43 44 45 46 47 48 49 50

000
ASUS43 KJKL 211110
RWRJKL

EAST KENTUCKY HOURLY WEATHER ROUNDUP
NATIONAL WEATHER SERVICE JACKSON KY
700 AM EDT THU AUG 21 2014

NOTE: "FAIR" INDICATES FEW OR NO CLOUDS BELOW 12,000 FEET WITH
NO SIGNIFICANT WEATHER AND/OR OBSTRUCTIONS TO VISIBILITY.

* THESE REPORTS ARE NOT UNDER NWS QUALITY CONTROL AND MAY NOT
  REPORT WEATHER SUCH AS PRECIPITATION AND FOG.

KYZ079-080-083-085-087-088-110-112-115-119-120-211200
...EASTERN KENTUCKY...

CITY           SKY/WX    TMP DP  RH WIND       PRES   REMARKS
JACKSON        PTCLDY    66  64  93 CALM      30.13R FOG
LONDON         MOCLDY    67  64  90 CALM      30.13R
SOMERSET*      MOCLDY    64  64 100 CALM      30.12R FOG
MONTICELLO*    PTCLDY    65  64  96 CALM      30.13R FOG
WILLIAMSBURG*  CLEAR     63  63 100 CALM      30.13
MIDDLESBORO*   FOG       64  64 100 CALM      30.15R VSB 1/2
HARLAN APT*    CLOUDY    64  63  94 MISG      30.16R VSB 1/4
HAZARD APT*    MOSUNNY   64  64 100 CALM      30.13R FOG
BLACK MTN*       N/A     64  61  88 CALM        N/A
PIKEVILLE APT* CLOUDY    64  64 100 CALM      30.14R
BIG SANDY*     CLOUDY    68  65  91 SW3       30.13R
MOREHEAD APT*  MOSUNNY   68  66  94 S3        30.11S
$$

KYZ035-036-041-042-044-050-067-078-099-211200
...CENTRAL KENTUCKY...

CITY           SKY/WX    TMP DP  RH WIND       PRES   REMARKS
MT STERLING*   MOCLDY    66  66 100 SW5       30.10S
FLEMING/MASON* CLEAR     66  66 100 SW6       30.09R FOG
DANVILLE*      MOCLDY    68  64  88 S5        30.10R
RICHMOND*      MOCLDY    68  64  88 CALM      30.09R
LEXINGTON      MOCLDY    70  66  87 S6        30.08S
FRANKFORT      MOCLDY    69  67  93 S3        30.05F
$$

KYZ091>093-OHZ055-061-077-WVZ005-015-034-035-042-211200
...SOUTHERN OHIO/WEST VIRGINIA...

CITY           SKY/WX    TMP DP  RH WIND       PRES   REMARKS
COVINGTON      PTCLDY    70  68  93 S7        30.04S FOG
COLUMBUS       CLOUDY    71  65  81 S3        30.02F
DAYTON         LGT RAIN  71  68  90 SW13      30.07R
WILMINGTON     LGT RAIN  67  65  93 SW5       30.05R FOG
HUNTINGTON     CLEAR     66  65  96 SE3       30.07S
CHARLESTON     PTCLDY    67  67 100 CALM      30.10R
PINEVILLE*     FOG       66  66 100 MISG      30.21R VSB 1
BECKLEY        PTCLDY    64  60  87 SW7       30.18R
BLUEFIELD      CLEAR     64  60  87 W6        30.21R
$$

VAZ002-007-008-TNZ017-027-036-066-071-211200
...SOUTHWEST VIRGINIA/EAST TENNESSEE...

CITY           SKY/WX    TMP DP  RH WIND       PRES   REMARKS
WISE*          FOG       63  63 100 SE5       30.22R VSB 1/4
JONESVILLE*      N/A     64  64 100 CALM      30.19R
ABINGDON*      CLEAR     66  66  98 CALM      30.19R FOG
BRISTOL        FOG       65  63  93 CALM      30.18R VSB 1/16
KNOXVILLE      MOCLDY    65  65 100 SE3       30.13R FOG
OAK RIDGE      CLOUDY    67  65  93 CALM      30.15R
CROSSVILLE     CLEAR     66  63  90 CALM      30.17R
NASHVILLE      PTCLDY    70  68  93 CALM      30.09S
$$

...KEY TO REMARKS...
VSB - VISIBILITY IN MILES
WCI - WIND CHILL INDEX
HX  - HEAT INDEX

$$



USA.gov is the U.S. government's official web portal to all federal, state and local government web resources and services.